Weather History for Mobile, AL

Change the Weather History Date:

Monday, August 4, 2014

  Actual Average Record
Temperature  
Mean Temperature 81 °F 82 °F  
Max Temperature 91 °F 91 °F 98 °F (1951)
Min Temperature 71 °F 73 °F 68 °F (1998)
Cooling Degree Days 16 17  
Month to date cooling degree days 60 68  
Year to date cooling degree days 1271 1479  
Since 1 June cooling degree days 933 1034  
Growing Degree Days 31 (Base 50)    
Moisture  
Dew Point 72 °F    
Average Humidity 78    
Maximum Humidity 100    
Minimum Humidity 56    
Precipitation  
Precipitation 0.00 in 0.25 in 4.08 in (1876)
Month to date precipitation T 1.04  
Year to date precipitation 54.57 41.24  
Sea Level Pressure  
Sea Level Pressure 29.99 in    
Wind  
Wind Speed 5 mph (NE)    
Max Wind Speed 15 mph    
Max Gust Speed 17 mph    
Visibility 8 miles    
Events Thunderstorm    
T = Trace of Precipitation, MM = Missing Value Source: NWS Daily Summary

Daily Weather History Graph

Daily Weather History Graph

Search for Another Location

Airport:

Trip Planner

Search our weather history database for the weather conditions in past years. The results will help you decide how hot, cold, wet, or windy it might be!

Date:

Astronomy

Aug. 04, 2014 Rise Set
Actual Time 6:12 AM CDT 7:45 PM CDT
Civil Twilight 5:46 AM CDT 8:11 PM CDT
Nautical Twilight 5:15 AM CDT 8:42 PM CDT
Astronomical Twilight 4:42 AM CDT 9:14 PM CDT
Moon 1:58 PM CDT (8/4) 12:15 AM CDT (8/4)
Length of Visible Light 14h 24m
Length of Day
13h 32m
First Quarter, 57% of the Moon is Illuminated
Aug 4
First Quarter
Aug 10
Full
Aug 17
Last Quarter
Aug 25
New
Sep 2
First Quarter

Hourly Weather History & Observations

Time (CDT) Temp. Heat Index Dew Point Humidity Pressure Visibility Wind Dir Wind Speed Gust Speed Precip Events Conditions
12:10 AM 73.0 °F - 73.0 °F 100% 30.00 in 9.0 mi NW 3.5 mph - N/A   Partly Cloudy
12:56 AM 73.9 °F - 72.0 °F 93% 29.99 in 10.0 mi NNE 3.5 mph - N/A   Clear
1:56 AM 73.0 °F - 72.0 °F 96% 29.98 in 9.0 mi NNE 3.5 mph - N/A   Clear
2:56 AM 72.0 °F - 72.0 °F 100% 29.97 in 7.0 mi Calm Calm - N/A   Clear
3:56 AM 73.0 °F - 72.0 °F 96% 29.97 in 9.0 mi North 4.6 mph - N/A   Clear
4:56 AM 73.0 °F - 72.0 °F 96% 29.98 in 8.0 mi NNE 4.6 mph - N/A   Clear
5:56 AM 73.0 °F - 73.0 °F 100% 30.00 in 5.0 mi ENE 4.6 mph - N/A   Mostly Cloudy
6:56 AM 73.9 °F - 73.9 °F 100% 30.00 in 3.0 mi NE 5.8 mph - N/A   Mostly Cloudy
7:56 AM 75.9 °F - 73.9 °F 94% 30.02 in 3.0 mi ENE 3.5 mph - N/A   Mostly Cloudy
8:56 AM 79.0 °F - 73.9 °F 84% 30.04 in 5.0 mi Variable 5.8 mph - N/A   Haze
9:56 AM 82.0 °F 87.4 °F 73.0 °F 74% 30.04 in 7.0 mi ESE 4.6 mph - N/A   Mostly Cloudy
10:56 AM 84.9 °F 91.4 °F 73.0 °F 67% 30.04 in 10.0 mi NNW 3.5 mph - N/A   Mostly Cloudy
11:56 AM 86.0 °F 92.2 °F 72.0 °F 63% 30.02 in 10.0 mi Variable 3.5 mph - N/A   Mostly Cloudy
12:56 PM 87.1 °F 93.6 °F 72.0 °F 61% 30.00 in 7.0 mi North 4.6 mph - N/A   Mostly Cloudy
1:56 PM 89.1 °F 96.0 °F 72.0 °F 57% 29.98 in 7.0 mi NNE 6.9 mph - N/A   Mostly Cloudy
2:56 PM 88.0 °F 95.6 °F 73.0 °F 61% 29.96 in 10.0 mi NNE 6.9 mph - N/A   Overcast
3:56 PM 89.1 °F 96.0 °F 72.0 °F 57% 29.95 in 10.0 mi NE 9.2 mph - N/A   Mostly Cloudy
4:56 PM 90.0 °F 96.4 °F 71.1 °F 54% 29.95 in 10.0 mi ENE 3.5 mph - N/A   Overcast
5:56 PM 87.1 °F 92.8 °F 71.1 °F 59% 29.96 in 10.0 mi East 8.1 mph - N/A   Mostly Cloudy
6:23 PM 86.0 °F 91.5 °F 71.1 °F 61% 29.98 in 8.0 mi East 5.8 mph - N/A Thunderstorm Mostly Cloudy
6:56 PM 84.0 °F 89.0 °F 71.1 °F 65% 29.96 in 8.0 mi ESE 10.4 mph - N/A Thunderstorm Mostly Cloudy
7:14 PM 82.0 °F 85.9 °F 70.0 °F 67% 29.98 in 8.0 mi ESE 8.1 mph - N/A   Mostly Cloudy
7:56 PM 80.1 °F 83.2 °F 70.0 °F 71% 29.99 in 8.0 mi SSW 5.8 mph - N/A   Mostly Cloudy
8:56 PM 80.1 °F 84.5 °F 73.9 °F 81% 30.01 in 10.0 mi Calm Calm - N/A   Mostly Cloudy
9:56 PM 77.0 °F - 75.9 °F 96% 30.01 in 9.0 mi NW 5.8 mph - N/A   Mostly Cloudy
10:56 PM 75.9 °F - 75.0 °F 97% 30.01 in 9.0 mi WSW 3.5 mph - N/A   Overcast